EB5EEV-5 Weather Reports


time (UTC)temp
F
wind
direction
speed
knots
gust
knots
rain 1hr
in
rain 24hr
in
rain mn
in
humidity
%
barometer
mb
20260509224621 60 137 0.9 1.7 0.00 0.00 0.00 9 1010.9
20260509223206 60 128 1.7 3.5 0.00 0.00 0.00 9 1010.9
20260509221916 60 129 2.6 2.6 0.00 0.00 0.00 9 1010.8
20260509220600 60 0 0.0 0.0 0.00 0.00 0.00 9 1010.7
20260509215244 60 0 0.0 0.9 0.00 0.00 2.00 9 1010.5
20260509213836 60 352 4.3 4.3 0.00 0.00 2.00 9 1010.7
20260509212436 60 0 0.0 0.0 0.00 0.00 2.00 9 1010.9
20260509211221 60 136 0.9 0.9 0.00 0.00 2.00 9 1010.9
20260509205910 60 123 0.9 1.7 0.00 0.00 2.00 9 1010.9
20260509204507 61 0 0.0 0.9 0.00 0.00 2.00 8 1010.5
20260509203155 61 0 0.0 0.9 0.00 0.00 2.00 8 1010.5
20260509201916 61 0 0.0 0.0 0.00 0.00 2.00 8 1010.4
20260509200648 61 0 0.0 0.0 0.00 0.00 2.00 8 1010.3
20260509195452 61 152 0.9 0.9 0.00 0.00 2.00 8 1009.9
20260509194146 62 0 0.0 0.9 0.00 0.00 2.00 8 1009.5
20260509192836 62 0 0.0 0.9 0.00 0.00 2.00 8 1009.3
20260509191349 63 0 0.0 0.0 0.00 0.00 2.00 8 1009.3
20260509185916 63 0 0.0 0.0 0.00 0.00 2.00 8 1009.1
20260509184438 64 252 0.9 0.9 0.00 0.00 2.00 8 1008.7
20260509183157 64 252 0.9 0.9 0.00 0.00 2.00 8 1008.7
20260509181946 65 210 0.9 1.7 0.00 0.00 2.00 8 1008.7
20260509180540 64 165 0.9 0.9 0.00 0.00 2.00 8 1008.5
20260509175116 0 0 0.0 0.0 0.00 0.00 2.00 100 1008.6
20260509173736 0 0 0.0 0.0 0.00 0.00 2.00 100 1008.7
20260509172446 0 0 0.0 0.0 0.00 0.00 2.00 100 1008.4
20260509171021 0 0 0.0 0.0 0.00 0.00 2.00 100 1008.4
20260509165605 0 0 0.0 0.0 0.00 0.00 2.00 100 1008.5
20260509164318 0 0 0.0 0.0 0.00 0.00 2.00 100 1008.2
20260509163028 0 0 0.0 0.0 0.00 0.00 2.00 100 1008.1
20260509161711 0 0 0.0 0.0 0.00 0.00 2.00 100 1008.1
20260509160508 0 0 0.0 0.0 0.00 0.00 2.00 100 1008.1
20260509155044 0 0 0.0 0.0 0.00 0.00 2.00 100 1008.2
20260509153550 0 0 0.0 0.0 0.00 0.00 2.00 100 1008.3
20260509152124 0 0 0.0 0.0 0.00 0.00 2.00 100 1008.0
20260509150736 0 0 0.0 0.0 0.00 0.00 2.00 100 1008.0
20260509145503 0 0 0.0 0.0 0.00 0.00 2.00 100 1008.0
20260509144121 0 0 0.0 0.0 0.00 0.00 2.00 100 1007.9
20260509142851 0 0 0.0 0.0 0.00 0.00 2.00 100 1008.2
20260509141531 0 0 0.0 0.0 0.00 0.00 2.00 100 1008.1
20260509140241 0 0 0.0 0.0 0.00 0.00 2.00 100 1008.1
20260509135006 0 0 0.0 0.0 0.00 0.00 2.00 100 1007.9
20260509133746 0 0 0.0 0.0 0.00 0.00 2.00 100 1008.0
20260509132533 0 0 0.0 0.0 0.11 0.00 2.00 100 1008.1
20260509131300 0 0 0.0 0.0 0.19 0.00 2.00 100 1008.5
20260509130046 59 140 1.7 1.7 0.29 0.00 2.00 9 1009.2
20260509124756 59 140 1.7 1.7 0.29 0.00 2.00 9 1009.2
20260509123339 59 133 3.5 5.2 0.36 0.00 1.99 9 1009.0
20260509121916 59 158 4.3 6.1 0.37 0.00 1.90 9 1009.3
20260509120658 59 103 0.9 0.9 0.58 0.00 1.79 9 1009.4
20260509115301 59 0 0.0 0.0 0.95 0.00 1.70 9 1009.4
20260509114033 59 0 0.0 0.0 0.99 0.00 1.62 9 1009.6
20260509112538 59 0 0.0 0.0 0.94 0.00 1.52 9 1009.5
20260509111332 60 324 0.9 1.7 0.67 0.00 1.23 9 1009.3
20260509110046 61 230 6.1 7.8 0.26 0.00 0.80 9 1009.1
20260509105437 61 230 6.1 7.8 0.26 0.00 0.80 9 1009.1
20260509104040 61 115 3.5 3.5 0.14 0.00 0.62 9 1007.9
20260509102606 62 122 4.3 5.2 0.09 0.00 0.55 9 1007.8
20260509101238 62 0 0.0 4.3 0.07 0.00 0.53 9 1007.8
20260509095934 62 224 4.3 4.3 0.09 0.00 0.47 9 1007.7
20260509094528 62 236 0.9 3.5 0.15 0.00 0.47 9 1008.0
20260509093301 62 236 0.9 3.5 0.15 0.00 0.47 9 1008.0
20260509091921 63 0 0.0 3.5 0.16 0.00 0.46 9 1007.3
20260509090521 62 222 1.7 3.5 0.21 0.00 0.45 9 1008.1
20260509085037 62 147 0.9 0.9 0.17 0.00 0.37 9 1008.1
20260509083721 61 245 0.9 7.0 0.16 0.00 0.31 9 1006.6
20260509082326 61 0 0.0 0.9 0.22 0.00 0.29 9 1007.6
20260509081048 61 0 0.0 0.9 0.18 0.00 0.25 9 1008.2
20260509075753 62 0 0.0 0.9 0.14 0.00 0.20 9 1008.3
20260509074417 62 0 0.0 0.9 0.11 0.00 0.15 9 1008.3
20260509073156 62 0 0.0 0.9 0.11 0.00 0.15 9 1008.3
20260509071731 62 0 0.0 0.9 0.04 0.00 0.07 9 1008.8
20260509070510 62 117 2.6 3.5 0.03 0.00 0.06 9 1007.4
20260509065041 62 238 1.7 2.6 0.03 0.00 0.05 9 1008.5
20260509063726 62 0 0.0 0.0 0.03 0.00 0.03 9 1008.5
20260509062322 62 131 0.9 0.9 0.03 0.00 0.03 9 1007.7
20260509061051 62 0 0.0 0.9 0.03 0.00 0.03 9 1007.0
20260509055646 62 0 0.0 2.6 0.02 0.00 0.03 8 1007.2
20260509054306 63 0 0.0 0.9 0.00 0.00 0.00 8 1007.5
20260509052926 63 122 3.5 4.3 0.00 0.00 0.00 8 1007.8
20260509051549 63 0 0.0 0.9 0.00 0.00 0.00 8 1007.7
20260509050241 63 0 0.0 0.9 0.00 0.00 0.00 8 1007.7
20260509044842 63 0 0.0 0.9 0.00 0.00 0.00 8 1007.7
20260509043531 63 0 0.0 0.0 0.00 0.00 0.00 8 1007.5
20260509042036 63 0 0.0 0.9 0.00 0.00 0.00 8 1007.5
20260509040826 63 265 0.9 0.9 0.00 0.00 0.00 8 1007.5
20260509035331 63 0 0.0 0.0 0.00 0.00 0.00 8 1007.7
20260509034121 63 219 2.6 2.6 0.00 0.00 0.00 8 1007.7
20260509032854 63 0 0.0 0.0 0.00 0.00 0.00 8 1007.8
20260509031441 62 0 0.0 0.0 0.00 0.00 0.00 8 1007.9
20260509025941 62 0 0.0 0.0 0.00 0.00 0.00 8 1007.9
20260509024726 62 0 0.0 0.0 0.00 0.00 0.00 8 1007.9
20260509023311 62 0 0.0 0.0 0.00 0.00 0.00 8 1008.1
20260509022057 62 0 0.0 1.7 0.00 0.00 0.00 8 1007.9
20260509020826 61 0 0.0 0.0 0.00 0.00 0.00 8 1008.2
20260509015401 61 0 0.0 0.0 0.00 0.00 0.00 8 1008.4
20260509014126 61 0 0.0 0.9 0.00 0.00 0.00 8 1008.7
20260509012746 61 0 0.0 0.0 0.00 0.00 0.00 8 1009.0
20260509011436 61 0 0.0 0.0 0.00 0.00 0.00 8 1009.0
20260509010113 61 0 0.0 0.0 0.00 0.00 0.00 8 1009.0
20260509004656 61 0 0.0 0.0 0.00 0.00 0.00 8 1009.1
20260509003332 62 0 0.0 0.0 0.00 0.00 0.00 8 1009.5
20260509002051 61 0 0.0 0.0 0.00 0.00 0.00 8 1009.5
20260509000847 61 0 0.0 0.0 0.00 0.00 0.00 8 1009.5
20260508235527 61 0 0.0 0.0 0.00 0.00 0.00 8 1009.8
20260508234143 61 0 0.0 0.0 0.00 0.00 0.00 8 1009.7
20260508232720 61 0 0.0 0.0 0.00 0.00 0.00 8 1009.7
20260508231233 61 0 0.0 0.0 0.00 0.00 0.00 8 1010.2
20260508225851 61 0 0.0 0.0 0.00 0.00 0.00 8 1010.1